Location: Santa Cristina
(46.5667°N, 11.7167°E)
Time: 02:40:21
(UTC+00:00)

NOSS 3-4 (A) - Visible Passes

Search period start: 26 July 2021 00:00
Search period end: 05 August 2021 00:00
Orbit: 870 x 1342 km, 63.4° (Epoch: 23 July)

Date Brightness Start Highest point End Pass type
(mag) Time Alt. Az. Time Alt. Az. Time Alt. Az.
26 Jul 5.6 01:26:36 10° NNW 01:32:39 33° NNE 01:39:17 10° E visible
26 Jul 5.5 20:55:41 10° W 21:00:53 30° NNW 21:06:29 10° NNE visible
26 Jul 6.3 22:49:47 10° NW 22:54:01 18° N 22:58:32 10° NE visible
27 Jul 5.9 00:41:49 10° NNW 00:47:21 27° NNE 00:53:23 10° E visible
27 Jul 4.2 02:32:29 10° NW 02:39:25 72° NE 02:47:09 10° SE visible
27 Jul 4.9 20:10:11 10° WSW 20:15:42 40° NW 20:21:41 10° NNE visible
27 Jul 6.2 22:04:10 10° NW 22:08:30 19° N 22:13:08 10° NE visible
27 Jul 6.1 23:56:57 10° NNW 00:01:57 22° NNE 00:07:22 10° ENE visible
28 Jul 4.7 01:47:46 10° NW 01:54:26 52° NE 02:01:53 10° ESE visible
28 Jul 4.3 19:24:55 10° WSW 19:30:39 56° NW 19:36:54 10° NE visible
28 Jul 6.0 21:18:25 10° WNW 21:23:02 22° NNW 21:27:58 10° NNE visible
28 Jul 6.2 23:11:55 10° NW 23:16:29 19° N 23:21:22 10° NE visible
29 Jul 5.2 01:03:02 10° NNW 01:09:21 39° NE 01:16:20 10° ESE visible
29 Jul 3.9 02:53:47 10° NW 03:00:44 67° WSW 03:08:29 10° SSE visible
29 Jul 5.7 20:32:41 10° W 20:37:39 26° NNW 20:43:01 10° NNE visible
29 Jul 6.2 22:26:40 10° NW 22:30:57 18° N 22:35:31 10° NE visible
30 Jul 5.6 00:18:17 10° NNW 00:24:08 30° NNE 00:30:33 10° E visible
30 Jul 3.9 02:08:57 10° NW 02:15:56 87° NE 02:23:45 10° SE visible
30 Jul 5.3 19:47:03 10° W 19:52:23 33° NNW 19:58:09 10° NNE visible
30 Jul 6.2 21:41:10 10° NW 21:45:25 18° N 21:49:56 10° NE visible
30 Jul 5.8 23:33:29 10° NNW 23:38:48 25° NNE 23:44:35 10° ENE visible
31 Jul 4.3 01:24:11 10° NW 01:31:02 63° NE 01:38:40 10° SE visible
31 Jul 4.4 03:15:25 10° NW 03:21:47 36° WSW 03:28:46 10° S visible
31 Jul 6.1 20:55:28 10° WNW 20:59:54 20° NNW 21:04:38 10° NNE visible
31 Jul 6.0 22:48:34 10° NNW 22:53:23 21° NNE 22:58:34 10° ENE visible
01 Aug 4.8 00:39:28 10° NNW 00:46:00 46° NE 00:53:18 10° ESE visible
01 Aug 4.0 02:30:20 10° NW 02:37:09 53° WSW 02:44:43 10° SSE visible
01 Aug 5.9 20:09:43 10° WNW 20:14:27 23° NNW 20:19:34 10° NNE visible
01 Aug 6.1 22:03:26 10° NW 22:07:53 19° N 22:12:36 10° NE visible
01 Aug 5.2 23:54:45 10° NNW 00:00:53 35° NE 00:07:38 10° E visible
02 Aug 3.8 01:45:26 10° NW 01:52:25 77° SW 02:00:13 10° SSE visible
02 Aug 5.6 19:24:00 10° W 19:29:08 28° NNW 19:34:40 10° NNE visible
02 Aug 6.1 21:18:05 10° NW 21:22:20 18° N 21:26:51 10° NE visible
02 Aug 5.6 23:09:59 10° NNW 23:15:37 28° NNE 23:21:46 10° E visible
03 Aug 4.0 01:00:38 10° NW 01:07:35 77° NE 01:15:22 10° SE visible
03 Aug 4.7 02:52:12 10° WNW 02:58:07 28° WSW 03:04:30 10° SSW visible
03 Aug 6.1 20:32:30 10° NW 20:36:48 19° N 20:41:23 10° NE visible
03 Aug 5.8 22:25:08 10° NNW 22:30:15 23° NNE 22:35:47 10° ENE visible
04 Aug 4.4 00:15:54 10° NW 00:22:38 56° NE 00:30:09 10° ESE visible
04 Aug 4.2 02:06:57 10° NW 02:13:33 42° WSW 02:20:48 10° S visible
04 Aug 6.0 19:46:46 10° WNW 19:51:19 21° NNW 19:56:11 10° NNE visible
04 Aug 6.0 21:40:08 10° NNW 21:44:47 20° NNE 21:49:46 10° ENE visible
04 Aug 4.9 23:31:11 10° NNW 23:37:34 41° NE 23:44:39 10° ESE visible
